Flag for Sweden Weather past 2 weeks in Gävle, Sweden

Now
49 °F

Drizzle. Overcast.


Feels Like: 48 °F
Forecast: 46 / 53 °F
Wind: 5 mph from South

Location: Films Kyrkby

Current Time: Oct 25, 2014 at 2:04:59 AM

Latest Report: Oct 25, 2014 at 1:00 AM


Visibility: 5 mi

Pressure: 30.00 "Hg

Humidity: 94%

Dew point: 48 °F

Location of GävleLocation

Historic Weather in Gävle — Graph

°F

Gävle temperature yesterday

Maximum temperature yesterday: 49 °F (at 11:00 PM)
Minimum temperature yesterday: 39 °F (at 2:00 AM)
Average temperature yesterday: 44 °F

Past Weeks' High & Low Weather Summary

 TemperatureHumidityPressure
High58 °F (Oct 19, 3:00 PM)99% (Oct 12, 4:00 AM)30.34 "Hg (Oct 12, 4:00 AM)
Low32 °F (Oct 23, 4:00 AM)66% (Oct 23, 3:00 PM)29.29 "Hg (Oct 20, 7:00 AM)
Average44 °F91%29.92 "Hg
* Reported Midnight between Oct 9 and Oct 10 — Midnight between Oct 24 and Oct 25, Gävle, Weather by CustomWeather, © 2014

Note: Actual official high and low records may vary slightly from our data, if they occured in-between our weather recording intervals... More about our weather records

Advertising

Gävle weather history for previous 24 hours

 ConditionsComfort  
Time TempWeatherWind HumidityBarometerVisibility
12:00 AM
Oct 25
49 °FLight rain. Overcast.5 mph94%30.00 "Hg6 mi
11:00 PM
Oct 24
49 °FLight rain. Overcast.6 mph94%30.01 "Hg4 mi
10:00 PM49 °FRain showers. Overcast.6 mph94%30.02 "Hg6 mi
9:00 PM48 °FRain showers. Overcast.6 mph94%30.02 "Hg5 mi
8:00 PM48 °FDrizzle. Overcast.7 mph94%30.03 "Hg4 mi
7:00 PM48 °FFog.6 mph95%30.04 "Hg5 mi
6:00 PM47 °FCool.6 mph94%30.05 "Hg9 mi
5:00 PM47 °FCool.6 mph94%30.07 "Hg7 mi
4:00 PM46 °FFog.5 mph93%30.09 "Hg4 mi
3:00 PM46 °FFog.5 mph93%30.09 "Hg4 mi
2:00 PM46 °FFog.6 mph94%30.11 "Hg6 mi
1:00 PM45 °FFog.6 mph94%30.13 "Hg3 mi
12:00 PM45 °FQuite cool.6 mph92%30.14 "Hg7 mi
11:00 AM43 °FLight rain. Cloudy.5 mph94%30.14 "Hg9 mi
10:00 AM42 °FLight rain. Cloudy.5 mph93%30.15 "Hg6 mi
9:00 AM41 °FLight rain. Cloudy.3 mph92%30.16 "Hg8 mi
8:00 AM41 °FLight rain. Cloudy.5 mph90%30.16 "Hg11 mi
7:00 AM42 °FLight rain. Overcast.5 mph86%30.16 "Hg9 mi
6:00 AM41 °FLight rain. Overcast.3 mph82%30.18 "Hg25 mi
5:00 AM40 °FRain showers. Overcast.3 mph82%30.19 "Hg16 mi
4:00 AM40 °FLight rain. Overcast.5 mph82%30.21 "Hg16 mi
3:00 AM39 °FLight rain. Overcast.3 mph83%30.22 "Hg17 mi
2:00 AM39 °FLight rain. Overcast.3 mph84%30.24 "Hg19 mi
Weather by CustomWeather, © 2014

See weather overviewHow to use our weather pages